Location: Most
(50.5133°N, 13.6207°E)
Time: 01:38:45
(UTC+02:00)

ISS - Pass Details

Date: 21 September 2021
Orbit: 417 x 423 km, 51.6° (Epoch: 22 October)

Event Time Altitude Azimuth Distance (km) Brightness Sun altitude
Rises 20:01:18 0° 239° (WSW) 2,355 0.8 -9.6°
Reaches altitude 10° 20:03:24 10° 235° (SW) 1,495 -0.3 -9.9°
Maximum altitude 20:06:42 56° 157° (SSE) 502 -3.6 -10.4°
Enters shadow 20:09:20 15° 80° (E) 1,230 -2.0 -10.8°
